Location: Unspecified
(0.0000°N, 0.0000°E)
Time: 13:12:48
(UTC+00:00)

HULIANWANG DIGUI-84 - Pass Details

Date: 15 November 2025
Orbit: 1167 x 1169 km, 86.5° (Epoch: 13 December)

Event Time Altitude Azimuth Distance (km) Brightness Sun altitude
Rises 04:34:39 0° 195° (SSW) 4,046 ? -16.6°
Reaches altitude 10° 04:37:27 10° 202° (SSW) 3,082 ? -15.9°
Maximum altitude 04:44:03 41° 269° (W) 1,638 ? -14.3°
Drops below altitude 10° 04:50:39 10° 337° (NNW) 3,071 ? -12.8°
Sets 04:53:28 0° 344° (NNW) 4,031 ? -12.1°
